Weather History for KBAX - October, 2013

Change the Weather History Date:

Thursday, October 31, 2013

  Actual Average (KP58) Record (KP58)
Temperature  
Mean Temperature 56 °F -  
Max Temperature 61 °F 51 °F 75 °F (2011)
Min Temperature 50 °F 39 °F 30 °F (1996)
Degree Days  
Heating Degree Days 10    
Growing Degree Days 6 (Base 50)    
Moisture  
Dew Point 57 °F    
Average Humidity 95    
Maximum Humidity 98    
Minimum Humidity 70    
Precipitation  
Precipitation 0.00 in - - ()
Sea Level Pressure  
Sea Level Pressure 29.54 in    
Wind  
Wind Speed 12 mph (South)    
Max Wind Speed 17 mph    
Max Gust Speed 25 mph    
Visibility 7 miles    
Events Rain    
Averages and records for this station are not official NWS values.
T = Trace of Precipitation, MM = Missing Value Source: NWS Daily Summary

Daily Weather History Graph

Daily Weather History Graph

Search for Another Location

Airport or City:

Trip Planner

Search our weather history database for the weather conditions in past years. The results will help you decide how hot, cold, wet, or windy it might be!

Date:

Astronomy

Oct. 31, 2013 Rise Set
Actual Time 8:06 AM EDT 6:23 PM EDT
Civil Twilight 7:37 AM EDT 6:53 PM EDT
Nautical Twilight 7:03 AM EDT 7:27 PM EDT
Astronomical Twilight 6:29 AM EDT 8:00 PM EDT
Moon 4:49 AM EDT (10/31) 4:45 PM EDT (10/31)
Length of Visible Light 11h 16m
Length of Day
10h 16m
Waning Crescent, 10% of the Moon is Illuminated
Oct 31
Waning Crescent
Nov 3
New
Nov 10
First Quarter
Nov 17
Full
Nov 25
Last Quarter

Hourly Weather History & Observations

Time (EDT) Temp. Dew Point Humidity Pressure Visibility Wind Dir Wind Speed Gust Speed Precip Events Conditions
12:15 AM 52.7 °F 43.3 °F 70% 29.95 in 10.0 mi SSE 11.5 mph - N/A   Overcast
12:34 AM 52.3 °F 43.7 °F 72% 29.93 in 10.0 mi SSE 8.1 mph - N/A   Overcast
12:55 AM 52.0 °F 44.4 °F 75% 29.91 in 10.0 mi South 10.4 mph - N/A   Overcast
1:15 AM 51.1 °F 45.9 °F 82% 29.90 in 7.0 mi SSE 10.4 mph - N/A Rain Light Rain
1:34 AM 50.2 °F 46.6 °F 87% 29.89 in 5.0 mi SSE 9.2 mph - N/A Rain Light Rain
1:55 AM 50.4 °F 47.5 °F 90% 29.87 in 5.0 mi South 11.5 mph 18.4 mph N/A Rain Light Rain
2:15 AM 50.9 °F 48.7 °F 92% 29.85 in 4.0 mi SSE 11.5 mph 23.0 mph N/A Rain Light Rain
2:34 AM 51.1 °F 49.5 °F 94% 29.83 in 3.0 mi South 13.8 mph - N/A   Overcast
2:55 AM 51.4 °F 50.2 °F 95% 29.83 in 3.0 mi South 12.7 mph - N/A   Overcast
3:14 AM 52.0 °F 50.9 °F 96% 29.82 in 3.0 mi South 15.0 mph 21.9 mph N/A   Overcast
3:35 AM 52.3 °F 51.4 °F 97% 29.81 in 3.0 mi South 16.1 mph - N/A Rain Light Rain
3:55 AM 52.9 °F 52.0 °F 97% 29.78 in 4.0 mi South 13.8 mph - N/A Rain Light Rain
4:14 AM 53.2 °F 52.7 °F 98% 29.78 in 4.0 mi South 11.5 mph - N/A   Drizzle
4:35 AM 53.8 °F 53.1 °F 97% 29.76 in 4.0 mi South 9.2 mph - N/A Rain Rain
4:55 AM 54.5 °F 54.0 °F 98% 29.74 in 4.0 mi SSE 10.4 mph 17.3 mph N/A Rain Rain
5:14 AM 54.7 °F 54.1 °F 98% 29.73 in 5.0 mi South 10.4 mph - N/A Rain Light Rain
5:35 AM 55.4 °F 54.9 °F 98% 29.71 in 3.0 mi SSE 11.5 mph 16.1 mph N/A Rain Heavy Rain
5:55 AM 56.1 °F 55.6 °F 98% 29.70 in 5.0 mi SSE 8.1 mph - N/A Rain Rain
6:14 AM 56.3 °F 55.6 °F 97% 29.70 in 7.0 mi South 10.4 mph - N/A Rain Rain
6:35 AM 57.2 °F 56.5 °F 97% 29.69 in 10.0 mi South 13.8 mph 17.3 mph N/A Rain Rain
6:55 AM 57.4 °F 56.8 °F 98% 29.67 in 7.0 mi SSW 13.8 mph 19.6 mph N/A Rain Rain
7:14 AM 58.1 °F 57.2 °F 97% 29.67 in 7.0 mi SSW 13.8 mph - N/A Rain Light Rain
7:35 AM 58.6 °F 58.1 °F 98% 29.67 in 7.0 mi SSW 12.7 mph - N/A Rain Rain
7:55 AM 59.5 °F 59.0 °F 98% 29.66 in 7.0 mi SSW 10.4 mph 18.4 mph N/A Rain Light Rain
8:14 AM 60.4 °F 59.7 °F 97% 29.66 in 7.0 mi SW 10.4 mph - N/A Rain Rain
8:35 AM 61.0 °F 59.9 °F 96% 29.66 in 10.0 mi SW 12.7 mph 23.0 mph N/A Rain Light Rain
8:55 AM 61.2 °F 59.9 °F 96% 29.66 in 7.0 mi SSW 16.1 mph 23.0 mph N/A Rain Light Rain
9:14 AM 61.3 °F 59.9 °F 95% 29.65 in 7.0 mi SW 16.1 mph 24.2 mph N/A Rain Rain
9:35 AM 61.2 °F 59.4 °F 94% 29.65 in 10.0 mi SW 13.8 mph 25.3 mph N/A Rain Rain
9:55 AM 61.2 °F 59.5 °F 94% 29.65 in 10.0 mi SSW 17.3 mph 20.7 mph N/A Rain Light Rain
10:14 AM 61.2 °F 59.4 °F 94% 29.64 in 10.0 mi SSW 12.7 mph 21.9 mph N/A   Drizzle
10:35 AM 61.2 °F 59.7 °F 95% 29.62 in 10.0 mi SSW 12.7 mph - N/A Rain Rain
10:55 AM 60.8 °F 59.4 °F 95% 29.61 in 4.0 mi SSW 9.2 mph - N/A Rain Rain
11:14 AM 60.8 °F 59.9 °F 97% 29.59 in 5.0 mi South 12.7 mph - N/A Rain Rain
11:35 AM 61.0 °F 60.1 °F 97% 29.59 in 4.0 mi SSW 11.5 mph - N/A   Heavy Drizzle
11:55 AM 61.2 °F 60.3 °F 97% 29.58 in 4.0 mi South 16.1 mph - N/A Rain Light Rain
12:14 PM 61.2 °F 60.1 °F 96% 29.57 in 5.0 mi South 9.2 mph 17.3 mph N/A Rain Rain
12:35 PM 61.2 °F 60.3 °F 97% 29.56 in 5.0 mi SSW 11.5 mph - N/A Rain Light Rain
12:55 PM 61.2 °F 60.6 °F 98% 29.55 in 7.0 mi SSW 9.2 mph - N/A Rain Rain
1:14 PM 61.3 °F 60.4 °F 97% 29.54 in 10.0 mi SSW 13.8 mph 19.6 mph N/A Rain Rain
1:35 PM 61.3 °F 60.1 °F 96% 29.52 in 7.0 mi SSW 15.0 mph 20.7 mph N/A Rain Rain
1:55 PM 61.2 °F 59.9 °F 96% 29.51 in 10.0 mi SSW 13.8 mph - N/A Rain Light Rain
2:14 PM 61.2 °F 59.9 °F 96% 29.50 in 10.0 mi SSW 13.8 mph 19.6 mph N/A Rain Light Rain
2:35 PM 60.8 °F 59.4 °F 95% 29.49 in 5.0 mi SSW 12.7 mph 20.7 mph N/A Rain Rain
2:55 PM 60.8 °F 59.4 °F 95% 29.49 in 7.0 mi SSW 13.8 mph 20.7 mph N/A Rain Light Rain
3:14 PM 60.8 °F 59.0 °F 94% 29.48 in 7.0 mi SSW 11.5 mph - N/A Rain Rain
3:35 PM 60.8 °F 59.2 °F 94% 29.47 in 10.0 mi SSW 11.5 mph - N/A Rain Light Rain
3:55 PM 60.4 °F 59.0 °F 95% 29.45 in 7.0 mi SSW 11.5 mph - N/A Rain Rain
4:14 PM 60.8 °F 59.0 °F 94% 29.44 in 10.0 mi SSW 15.0 mph 21.9 mph N/A   Drizzle
4:35 PM 60.8 °F 58.6 °F 93% 29.42 in 10.0 mi SSW 16.1 mph 20.7 mph N/A   Drizzle
4:55 PM 60.8 °F 58.6 °F 93% 29.42 in 10.0 mi SSW 17.3 mph 20.7 mph N/A Rain Rain
5:14 PM 60.3 °F 58.5 °F 94% 29.41 in 10.0 mi South 12.7 mph - N/A Rain Rain
5:35 PM 59.9 °F 58.6 °F 96% 29.39 in 10.0 mi South 15.0 mph 23.0 mph N/A Rain Light Rain
5:55 PM 59.9 °F 58.3 °F 94% 29.38 in 10.0 mi South 15.0 mph 19.6 mph N/A Rain Rain
6:14 PM 59.7 °F 58.5 °F 96% 29.37 in 10.0 mi South 16.1 mph 21.9 mph N/A Rain Light Rain
6:35 PM 59.5 °F 58.5 °F 96% 29.36 in 10.0 mi South 16.1 mph - N/A Rain Light Rain
6:54 PM 59.4 °F 58.3 °F 96% 29.34 in 7.0 mi South 13.8 mph 20.7 mph N/A   Drizzle
7:15 PM 59.4 °F 58.3 °F 96% 29.32 in 5.0 mi South 15.0 mph - N/A   Drizzle
7:35 PM 59.2 °F 58.3 °F 97% 29.31 in 5.0 mi South 13.8 mph 20.7 mph N/A   Light Drizzle
7:54 PM 59.0 °F 58.1 °F 97% 29.29 in 5.0 mi South 16.1 mph 20.7 mph N/A   Light Drizzle
8:15 PM 58.6 °F 58.1 °F 98% 29.27 in 4.0 mi South 16.1 mph 20.7 mph N/A   Light Drizzle
8:35 PM 58.6 °F 58.1 °F 98% 29.26 in 4.0 mi South 16.1 mph 21.9 mph N/A   Light Drizzle
8:54 PM 58.5 °F 57.7 °F 97% 29.24 in 5.0 mi South 16.1 mph 21.9 mph N/A   Overcast
9:15 PM 58.5 °F 57.6 °F 97% 29.21 in 7.0 mi South 15.0 mph 23.0 mph N/A   Overcast
9:35 PM 58.6 °F 57.6 °F 96% 29.19 in 10.0 mi South 15.0 mph 20.7 mph N/A   Overcast
9:54 PM 58.6 °F 57.7 °F 97% 29.18 in 7.0 mi South 15.0 mph - N/A   Overcast
10:15 PM 58.8 °F 57.9 °F 97% 29.16 in 7.0 mi South 13.8 mph - N/A Rain Light Rain
10:33 PM 59.0 °F 58.1 °F 97% 29.15 in 7.0 mi South 13.8 mph - N/A Rain Rain
10:54 PM 59.2 °F 58.5 °F 97% 29.13 in 7.0 mi South 16.1 mph 21.9 mph N/A Rain Rain
11:15 PM 59.5 °F 59.0 °F 98% 29.12 in 10.0 mi South 15.0 mph - N/A Rain Light Rain
11:35 PM 59.9 °F 59.2 °F 97% 29.10 in 10.0 mi SSW 11.5 mph - N/A Rain Light Rain
11:54 PM 60.3 °F 59.2 °F 96% 29.08 in 10.0 mi South 13.8 mph 23.0 mph N/A Rain Light Rain